Home   Weather   Saskatoon   Past weeks

Flag for Canada Past Weather in Saskatoon, Saskatchewan, Canada — Yesterday and Last 2 Weeks

Now
75 °F

Passing clouds.


Feels Like: 77 °F
Forecast: 61 / 87 °F
Wind: 12 mph from Southeast

Location: Saskatoon Weather Station

Current Time: Jul 18, 2018 at 12:34:47 am

Latest Report: Jul 18, 2018 at 12:00 am


Visibility: 15 mi

Pressure: 29.89 "Hg

Humidity: 61%

Dew Point: 61 °F

Location of SaskatoonLocation

Past Weather in Saskatoon — Graph

°F

Saskatoon Temperature Yesterday

Maximum temperature yesterday: 93 °F (at 4:00 pm)
Minimum temperature yesterday: 55 °F (at 5:00 am)
Average temperature yesterday: 76 °F

High & Low Weather Summary for the Past Weeks

 TemperatureHumidityPressure
High93 °F (Jul 17, 4:00 pm)100% (Jul 3, 4:00 am)30.45 "Hg (Jul 3, 4:00 am)
Low46 °F (Jul 5, 3:00 am)21% (Jul 17, 4:00 pm)29.66 "Hg (Jul 7, 2:00 am)
Average67 °F68%30.01 "Hg
* Reported Jul 2 11:00 pm — Jul 17 11:00 pm, Saskatoon. Weather by CustomWeather, © 2018

Note: Actual official high and low records may vary slightly from our data, if they occured in-between our weather recording intervals... More about our weather records

Advertising

Saskatoon Weather History for the Previous 24 Hours

Scroll right to see more
 ConditionsComfort  
Time TempWeatherWind HumidityBarometerVisibility
11:00 pm
Tue, Jul 17
77 °FPassing clouds.8 mph61%29.90 "Hg15 mi
10:00 pm79 °FPassing clouds.8 mph58%29.91 "Hg15 mi
9:00 pm82 °FPassing clouds.7 mph42%29.90 "Hg15 mi
8:00 pm88 °FPassing clouds.8 mph35%29.90 "Hg15 mi
7:00 pm91 °FPassing clouds.10 mph28%29.90 "Hg15 mi
6:00 pm93 °FPassing clouds.3 mph23%29.92 "Hg15 mi
5:00 pm93 °FPassing clouds.8 mph23%29.93 "Hg15 mi
4:00 pm93 °FSunny.7 mph21%29.95 "Hg15 mi
3:00 pm91 °FSunny.9 mph23%29.96 "Hg15 mi
2:00 pm91 °FSunny.12 mph28%29.97 "Hg15 mi
1:00 pm90 °FSunny.10 mph29%29.98 "Hg15 mi
12:00 pm86 °FSunny.9 mph38%30.00 "Hg15 mi
11:00 am81 °FSunny.7 mph45%30.02 "Hg15 mi
10:00 am75 °FSunny.8 mph50%30.03 "Hg15 mi
9:00 am72 °FSunny.7 mph53%30.04 "Hg15 mi
8:00 am66 °FSunny.10 mph60%30.04 "Hg15 mi
7:00 am63 °FPassing clouds.7 mph64%30.04 "Hg15 mi
6:00 am57 °FPassing clouds.8 mph77%30.05 "Hg15 mi
5:00 am55 °FClear.5 mph72%30.06 "Hg15 mi
4:00 am57 °FClear.8 mph67%30.05 "Hg15 mi
3:00 am59 °FClear.10 mph63%30.05 "Hg15 mi
2:00 am57 °FClear.9 mph67%30.06 "Hg15 mi
1:00 am59 °FClear.9 mph68%30.06 "Hg15 mi
12:00 am61 °FClear.9 mph68%30.06 "Hg15 mi
Weather by CustomWeather, © 2018

See weather overview